Time,TemperatureF,DewpointF,PressureIn,WindDirection,WindDirectionDegrees,WindSpeedMPH,WindSpeedGustMPH,Humidity,HourlyPrecipIn,Conditions,Clouds,dailyrainin,SoftwareType,DateUTC
2013-10-05 00:00:00,60.7,60.7,30.02,NNE,28,0.0,16.0,100,0.00,,,0.43,Wunderground v.1.15,2013-10-05 04:00:00,
2013-10-05 00:05:00,60.7,60.7,30.02,NNE,28,0.0,16.0,100,0.00,,,0.00,Wunderground v.1.15,2013-10-05 04:05:00,
2013-10-05 00:10:00,60.7,60.7,30.02,NNE,28,0.0,16.0,100,0.00,,,0.00,Wunderground v.1.15,2013-10-05 04:10:00,
2013-10-05 00:15:00,60.7,60.7,30.01,NNE,28,0.0,16.0,100,0.00,,,0.01,Wunderground v.1.15,2013-10-05 04:15:00,
2013-10-05 00:20:00,60.5,60.2,30.01,ESE,108,1.0,16.0,99,0.00,,,0.01,Wunderground v.1.15,2013-10-05 04:20:00,
2013-10-05 00:25:00,60.4,60.1,30.02,ESE,105,2.0,16.0,99,0.00,,,0.01,Wunderground v.1.15,2013-10-05 04:25:00,
2013-10-05 00:30:00,60.3,60.0,30.02,ESE,105,0.0,16.0,99,0.00,,,0.01,Wunderground v.1.15,2013-10-05 04:30:00,
2013-10-05 00:35:00,60.3,60.0,30.02,ESE,105,0.0,16.0,99,0.00,,,0.01,Wunderground v.1.15,2013-10-05 04:35:00,
2013-10-05 00:40:00,60.2,59.9,30.02,ESE,105,0.0,16.0,99,0.00,,,0.01,Wunderground v.1.15,2013-10-05 04:40:00,
2013-10-05 00:45:00,60.1,59.8,30.02,ESE,105,0.0,16.0,99,0.00,,,0.01,Wunderground v.1.15,2013-10-05 04:45:00,
2013-10-05 00:55:00,60.0,60.0,30.02,ESE,105,0.0,16.0,100,0.00,,,0.01,Wunderground v.1.15,2013-10-05 04:55:00,
2013-10-05 01:00:00,59.9,59.6,30.02,ESE,105,0.0,16.0,99,0.00,,,0.01,Wunderground v.1.15,2013-10-05 05:00:00,
2013-10-05 01:05:00,59.9,59.6,30.02,ESE,105,0.0,16.0,99,0.00,,,0.01,Wunderground v.1.15,2013-10-05 05:05:00,
2013-10-05 01:10:00,59.8,59.5,30.02,ESE,105,0.0,16.0,99,0.00,,,0.01,Wunderground v.1.15,2013-10-05 05:10:00,
2013-10-05 01:15:00,59.8,59.5,30.02,ESE,105,0.0,16.0,99,0.00,,,0.01,Wunderground v.1.15,2013-10-05 05:15:00,
2013-10-05 01:20:00,59.7,59.4,30.01,ESE,105,0.0,16.0,99,0.00,,,0.01,Wunderground v.1.15,2013-10-05 05:20:00,
2013-10-05 01:30:00,59.4,59.1,30.02,ESE,105,0.0,16.0,99,0.00,,,0.01,Wunderground v.1.15,2013-10-05 05:30:00,
2013-10-05 01:40:00,59.4,59.4,30.02,ESE,105,0.0,16.0,100,0.00,,,0.01,Wunderground v.1.15,2013-10-05 05:40:00,
2013-10-05 01:45:00,59.4,59.4,30.02,ESE,105,0.0,16.0,100,0.00,,,0.01,Wunderground v.1.15,2013-10-05 05:45:00,
2013-10-05 01:50:00,59.4,59.4,30.02,ESE,105,0.0,16.0,100,0.00,,,0.01,Wunderground v.1.15,2013-10-05 05:50:00,
2013-10-05 01:55:00,59.4,59.4,30.02,ESE,105,0.0,16.0,100,0.00,,,0.01,Wunderground v.1.15,2013-10-05 05:55:00,
2013-10-05 02:00:00,59.4,59.4,30.02,ESE,105,0.0,16.0,100,0.00,,,0.01,Wunderground v.1.15,2013-10-05 06:00:00,
2013-10-05 02:05:00,59.4,59.1,30.02,ESE,105,0.0,16.0,99,0.00,,,0.01,Wunderground v.1.15,2013-10-05 06:05:00,
2013-10-05 02:15:00,59.3,59.3,30.02,ESE,105,0.0,16.0,100,0.00,,,0.01,Wunderground v.1.15,2013-10-05 06:15:00,
2013-10-05 02:20:00,59.3,59.3,30.02,ESE,105,0.0,16.0,100,0.00,,,0.01,Wunderground v.1.15,2013-10-05 06:20:00,
2013-10-05 02:25:00,59.2,59.2,30.02,ESE,105,0.0,16.0,100,0.00,,,0.01,Wunderground v.1.15,2013-10-05 06:25:00,
2013-10-05 02:30:00,59.2,59.2,30.02,ESE,105,0.0,16.0,100,0.00,,,0.01,Wunderground v.1.15,2013-10-05 06:30:00,
2013-10-05 02:35:00,59.2,59.2,30.02,ESE,105,0.0,16.0,100,0.00,,,0.01,Wunderground v.1.15,2013-10-05 06:35:00,
2013-10-05 02:40:00,59.2,59.2,30.02,ESE,105,0.0,16.0,100,0.00,,,0.01,Wunderground v.1.15,2013-10-05 06:40:00,
2013-10-05 02:45:00,59.2,59.2,30.01,ESE,105,0.0,16.0,100,0.00,,,0.01,Wunderground v.1.15,2013-10-05 06:45:00,
2013-10-05 02:55:00,59.2,59.2,30.02,ESE,105,0.0,16.0,100,0.00,,,0.01,Wunderground v.1.15,2013-10-05 06:55:00,
2013-10-05 03:00:00,59.3,59.3,30.02,ESE,105,0.0,16.0,100,0.00,,,0.01,Wunderground v.1.15,2013-10-05 07:00:00,
2013-10-05 03:05:00,59.3,59.3,30.02,ESE,105,0.0,16.0,100,0.00,,,0.01,Wunderground v.1.15,2013-10-05 07:05:00,
2013-10-05 03:10:00,59.3,59.3,30.02,ESE,105,0.0,16.0,100,0.00,,,0.01,Wunderground v.1.15,2013-10-05 07:10:00,
2013-10-05 03:15:00,59.4,59.4,30.02,ESE,105,0.0,16.0,100,0.00,,,0.01,Wunderground v.1.15,2013-10-05 07:15:00,
2013-10-05 03:20:00,59.4,59.4,30.02,ESE,105,0.0,16.0,100,0.00,,,0.01,Wunderground v.1.15,2013-10-05 07:20:00,
2013-10-05 03:25:00,59.4,59.4,30.01,ESE,105,0.0,16.0,100,0.00,,,0.01,Wunderground v.1.15,2013-10-05 07:25:00,
2013-10-05 03:35:00,59.4,59.4,30.01,ESE,105,0.0,16.0,100,0.00,,,0.01,Wunderground v.1.15,2013-10-05 07:35:00,
2013-10-05 03:40:00,59.4,59.4,30.01,ESE,105,0.0,16.0,100,0.00,,,0.01,Wunderground v.1.15,2013-10-05 07:40:00,
2013-10-05 03:45:00,59.4,59.4,30.01,ESE,105,0.0,16.0,100,0.00,,,0.01,Wunderground v.1.15,2013-10-05 07:45:00,
2013-10-05 03:50:00,59.4,59.4,30.01,ESE,105,0.0,16.0,100,0.00,,,0.01,Wunderground v.1.15,2013-10-05 07:50:00,
2013-10-05 03:55:00,59.5,59.5,30.01,ESE,105,0.0,16.0,100,0.00,,,0.01,Wunderground v.1.15,2013-10-05 07:55:00,
2013-10-05 04:00:00,59.5,59.5,30.01,ESE,105,0.0,16.0,100,0.00,,,0.01,Wunderground v.1.15,2013-10-05 08:00:00,
2013-10-05 04:10:00,59.5,59.5,30.02,ESE,105,0.0,16.0,100,0.00,,,0.01,Wunderground v.1.15,2013-10-05 08:10:00,
2013-10-05 04:15:00,59.5,59.5,30.02,ESE,105,0.0,16.0,100,0.00,,,0.01,Wunderground v.1.15,2013-10-05 08:15:00,
2013-10-05 04:20:00,59.5,59.5,30.02,ESE,105,0.0,16.0,100,0.00,,,0.01,Wunderground v.1.15,2013-10-05 08:20:00,
2013-10-05 04:25:00,59.5,59.5,30.02,ESE,105,0.0,16.0,100,0.00,,,0.01,Wunderground v.1.15,2013-10-05 08:25:00,
2013-10-05 04:30:00,59.5,59.5,30.02,ESE,105,0.0,16.0,100,0.00,,,0.01,Wunderground v.1.15,2013-10-05 08:30:00,
2013-10-05 04:35:00,59.6,59.6,30.02,ESE,105,0.0,16.0,100,0.00,,,0.01,Wunderground v.1.15,2013-10-05 08:35:00,
2013-10-05 04:40:00,59.6,59.6,30.02,ESE,105,0.0,16.0,100,0.00,,,0.01,Wunderground v.1.15,2013-10-05 08:40:00,
2013-10-05 04:50:00,59.6,59.6,30.02,ESE,105,0.0,16.0,100,0.00,,,0.01,Wunderground v.1.15,2013-10-05 08:50:00,
2013-10-05 04:55:00,59.6,59.6,30.02,ESE,105,0.0,16.0,100,0.00,,,0.01,Wunderground v.1.15,2013-10-05 08:55:00,
2013-10-05 05:00:00,59.6,59.6,30.02,ESE,105,0.0,16.0,100,0.00,,,0.01,Wunderground v.1.15,2013-10-05 09:00:00,
2013-10-05 05:05:00,59.5,59.5,30.02,ESE,105,0.0,16.0,100,0.00,,,0.01,Wunderground v.1.15,2013-10-05 09:05:00,
2013-10-05 05:10:00,59.5,59.5,30.02,ESE,105,0.0,16.0,100,0.00,,,0.01,Wunderground v.1.15,2013-10-05 09:10:00,
2013-10-05 05:15:00,59.5,59.5,30.02,ESE,105,0.0,16.0,100,0.00,,,0.01,Wunderground v.1.15,2013-10-05 09:15:00,
2013-10-05 05:25:00,59.5,59.5,30.02,ESE,105,0.0,16.0,100,0.00,,,0.01,Wunderground v.1.15,2013-10-05 09:25:00,
2013-10-05 05:30:00,59.4,59.4,30.02,ESE,105,0.0,16.0,100,0.00,,,0.01,Wunderground v.1.15,2013-10-05 09:30:00,
2013-10-05 05:40:00,59.3,59.3,30.02,ESE,105,0.0,16.0,100,0.00,,,0.01,Wunderground v.1.15,2013-10-05 09:40:00,
2013-10-05 05:45:00,59.2,59.2,30.02,ESE,105,0.0,16.0,100,0.00,,,0.01,Wunderground v.1.15,2013-10-05 09:45:00,
2013-10-05 05:50:00,59.1,59.1,30.02,ESE,105,0.0,16.0,100,0.00,,,0.01,Wunderground v.1.15,2013-10-05 09:50:00,
2013-10-05 05:55:00,59.0,59.0,30.02,ESE,105,0.0,16.0,100,0.00,,,0.01,Wunderground v.1.15,2013-10-05 09:55:00,
2013-10-05 06:00:00,59.0,59.0,30.02,ESE,105,0.0,16.0,100,0.00,,,0.01,Wunderground v.1.15,2013-10-05 10:00:00,
2013-10-05 06:05:00,59.0,59.0,30.02,ESE,105,0.0,16.0,100,0.00,,,0.01,Wunderground v.1.15,2013-10-05 10:05:00,
2013-10-05 06:15:00,58.9,58.9,30.02,ESE,105,0.0,16.0,100,0.00,,,0.01,Wunderground v.1.15,2013-10-05 10:15:00,
2013-10-05 06:20:00,58.9,58.9,30.02,ESE,105,0.0,16.0,100,0.00,,,0.01,Wunderground v.1.15,2013-10-05 10:20:00,
2013-10-05 06:25:00,58.9,58.9,30.02,ESE,105,0.0,16.0,100,0.00,,,0.01,Wunderground v.1.15,2013-10-05 10:25:00,
2013-10-05 06:30:00,58.9,58.9,30.03,ESE,105,0.0,16.0,100,0.00,,,0.01,Wunderground v.1.15,2013-10-05 10:30:00,
2013-10-05 06:35:00,58.9,58.9,30.02,ESE,105,0.0,16.0,100,0.00,,,0.01,Wunderground v.1.15,2013-10-05 10:35:00,
2013-10-05 06:40:00,58.9,58.9,30.03,ESE,105,0.0,16.0,100,0.00,,,0.01,Wunderground v.1.15,2013-10-05 10:40:00,
2013-10-05 06:45:00,58.9,58.9,30.03,ESE,105,0.0,16.0,100,0.00,,,0.01,Wunderground v.1.15,2013-10-05 10:45:00,
2013-10-05 06:55:00,58.8,58.8,30.03,ESE,105,0.0,16.0,100,0.00,,,0.01,Wunderground v.1.15,2013-10-05 10:55:00,
2013-10-05 07:00:00,58.8,58.8,30.03,ESE,105,0.0,16.0,100,0.00,,,0.01,Wunderground v.1.15,2013-10-05 11:00:00,
2013-10-05 07:05:00,58.8,58.8,30.03,ESE,105,0.0,16.0,100,0.00,,,0.01,Wunderground v.1.15,2013-10-05 11:05:00,
2013-10-05 07:10:00,58.7,58.7,30.03,ESE,105,0.0,16.0,100,0.00,,,0.01,Wunderground v.1.15,2013-10-05 11:10:00,
2013-10-05 07:15:00,58.7,58.7,30.03,ESE,105,0.0,16.0,100,0.00,,,0.01,Wunderground v.1.15,2013-10-05 11:15:00,
2013-10-05 07:20:00,58.7,58.7,30.04,ESE,105,0.0,16.0,100,0.00,,,0.02,Wunderground v.1.15,2013-10-05 11:20:00,
2013-10-05 07:25:00,58.7,58.7,30.04,ESE,105,0.0,16.0,100,0.00,,,0.02,Wunderground v.1.15,2013-10-05 11:25:00,
2013-10-05 07:35:00,58.6,58.6,30.03,NE,46,0.0,16.0,100,0.00,,,0.02,Wunderground v.1.15,2013-10-05 11:35:00,
2013-10-05 07:40:00,58.6,58.6,30.04,NE,51,0.0,16.0,100,0.00,,,0.02,Wunderground v.1.15,2013-10-05 11:40:00,
2013-10-05 07:45:00,58.6,58.6,30.05,NE,51,0.0,16.0,100,0.00,,,0.02,Wunderground v.1.15,2013-10-05 11:45:00,
2013-10-05 07:50:00,58.5,58.5,30.05,NE,51,0.0,16.0,100,0.00,,,0.02,Wunderground v.1.15,2013-10-05 11:50:00,
2013-10-05 07:55:00,58.5,58.5,30.05,NE,51,0.0,16.0,100,0.00,,,0.02,Wunderground v.1.15,2013-10-05 11:55:00,
2013-10-05 08:00:00,58.5,58.5,30.05,NE,51,0.0,16.0,100,0.00,,,0.03,Wunderground v.1.15,2013-10-05 12:00:00,
2013-10-05 08:10:00,58.4,58.4,30.05,NE,51,0.0,16.0,100,0.05,,,0.04,Wunderground v.1.15,2013-10-05 12:10:00,
2013-10-05 08:15:00,58.3,58.3,30.05,NE,51,0.0,16.0,100,0.12,,,0.04,Wunderground v.1.15,2013-10-05 12:15:00,
2013-10-05 08:25:00,58.2,58.2,30.06,ENE,60,1.0,16.0,100,0.42,,,0.12,Wunderground v.1.15,2013-10-05 12:25:00,
2013-10-05 08:30:00,58.2,58.2,30.06,ENE,60,0.0,16.0,100,0.13,,,0.13,Wunderground v.1.15,2013-10-05 12:30:00,
2013-10-05 08:35:00,58.2,58.2,30.05,ENE,60,0.0,16.0,100,0.42,,,0.18,Wunderground v.1.15,2013-10-05 12:35:00,
2013-10-05 08:40:00,58.2,58.2,30.04,ENE,60,0.0,16.0,100,0.57,,,0.22,Wunderground v.1.15,2013-10-05 12:40:00,
2013-10-05 08:45:00,58.2,58.2,30.06,ENE,60,0.0,16.0,100,0.20,,,0.23,Wunderground v.1.15,2013-10-05 12:45:00,
2013-10-05 08:50:00,58.2,58.2,30.06,ENE,60,0.0,16.0,100,0.41,,,0.25,Wunderground v.1.15,2013-10-05 12:50:00,
2013-10-05 08:55:00,58.1,58.1,30.04,ENE,60,0.0,16.0,100,1.00,,,0.32,Wunderground v.1.15,2013-10-05 12:55:00,
2013-10-05 09:05:00,58.1,58.1,30.05,ENE,73,1.0,16.0,100,1.34,,,0.38,Wunderground v.1.15,2013-10-05 13:05:00,
2013-10-05 09:10:00,58.2,58.2,30.05,SE,130,1.0,1.0,100,0.20,,,0.40,Wunderground v.1.15,2013-10-05 13:10:00,
2013-10-05 09:15:00,58.1,58.1,30.04,ESE,111,1.0,16.0,100,0.09,,,0.40,Wunderground v.1.15,2013-10-05 13:15:00,
2013-10-05 09:20:00,58.2,58.2,30.04,ESE,109,2.0,16.0,100,0.05,,,0.40,Wunderground v.1.15,2013-10-05 13:20:00,
2013-10-05 09:25:00,58.3,58.3,30.05,ESE,109,2.0,16.0,100,0.04,,,0.40,Wunderground v.1.15,2013-10-05 13:25:00,
2013-10-05 09:30:00,58.4,58.4,30.05,ESE,109,0.0,16.0,100,0.00,,,0.40,Wunderground v.1.15,2013-10-05 13:30:00,
2013-10-05 09:35:00,58.5,58.5,30.05,ESE,109,0.0,16.0,100,0.00,,,0.40,Wunderground v.1.15,2013-10-05 13:35:00,
2013-10-05 09:40:00,58.6,58.6,30.05,ESE,109,0.0,16.0,100,0.00,,,0.40,Wunderground v.1.15,2013-10-05 13:40:00,
2013-10-05 09:50:00,58.7,58.7,30.05,ESE,109,0.0,16.0,100,0.00,,,0.40,Wunderground v.1.15,2013-10-05 13:50:00,
2013-10-05 09:55:00,58.8,58.8,30.05,ESE,109,0.0,16.0,100,0.00,,,0.40,Wunderground v.1.15,2013-10-05 13:55:00,
2013-10-05 10:00:00,59.0,59.0,30.05,ESE,109,0.0,16.0,100,0.00,,,0.40,Wunderground v.1.15,2013-10-05 14:00:00,
2013-10-05 10:05:00,59.2,59.2,30.05,ESE,109,0.0,16.0,100,0.00,,,0.40,Wunderground v.1.15,2013-10-05 14:05:00,
2013-10-05 10:10:00,59.3,59.3,30.05,ESE,109,0.0,16.0,100,0.00,,,0.40,Wunderground v.1.15,2013-10-05 14:10:00,
2013-10-05 10:15:00,59.2,59.2,30.05,ESE,109,0.0,16.0,100,0.00,,,0.40,Wunderground v.1.15,2013-10-05 14:15:00,
2013-10-05 10:20:00,59.2,59.2,30.05,ESE,109,0.0,16.0,100,0.00,,,0.40,Wunderground v.1.15,2013-10-05 14:20:00,
2013-10-05 10:30:00,59.3,59.3,30.05,ESE,109,0.0,16.0,100,0.00,,,0.40,Wunderground v.1.15,2013-10-05 14:30:00,
2013-10-05 10:35:00,59.4,59.4,30.05,ESE,109,0.0,16.0,100,0.00,,,0.40,Wunderground v.1.15,2013-10-05 14:35:00,
2013-10-05 10:40:00,59.5,59.5,30.05,ESE,109,0.0,16.0,100,0.00,,,0.40,Wunderground v.1.15,2013-10-05 14:40:00,
2013-10-05 10:45:00,59.7,59.7,30.05,ESE,109,0.0,16.0,100,0.00,,,0.40,Wunderground v.1.15,2013-10-05 14:45:00,
2013-10-05 10:50:00,59.7,59.7,30.05,ESE,109,0.0,16.0,100,0.00,,,0.40,Wunderground v.1.15,2013-10-05 14:50:00,
2013-10-05 10:55:00,59.6,59.6,30.05,ESE,109,0.0,16.0,100,0.00,,,0.40,Wunderground v.1.15,2013-10-05 14:55:00,
2013-10-05 11:00:00,59.7,59.7,30.04,ESE,109,0.0,16.0,100,0.00,,,0.40,Wunderground v.1.15,2013-10-05 15:00:00,
2013-10-05 11:05:00,60.0,60.0,30.04,ESE,109,0.0,16.0,100,0.00,,,0.40,Wunderground v.1.15,2013-10-05 15:05:00,
2013-10-05 11:15:00,60.3,60.3,30.04,ESE,109,0.0,16.0,100,0.00,,,0.40,Wunderground v.1.15,2013-10-05 15:15:00,
2013-10-05 11:20:00,60.4,60.4,30.04,ESE,109,0.0,16.0,100,0.00,,,0.40,Wunderground v.1.15,2013-10-05 15:20:00,
2013-10-05 11:25:00,60.5,60.5,30.05,ESE,109,0.0,16.0,100,0.00,,,0.40,Wunderground v.1.15,2013-10-05 15:25:00,
2013-10-05 11:30:00,60.4,60.4,30.04,ESE,109,0.0,16.0,100,0.00,,,0.40,Wunderground v.1.15,2013-10-05 15:30:00,
2013-10-05 11:35:00,60.5,60.5,30.04,ESE,109,0.0,16.0,100,0.00,,,0.40,Wunderground v.1.15,2013-10-05 15:35:00,
2013-10-05 11:40:00,60.5,60.5,30.04,ESE,109,0.0,16.0,100,0.00,,,0.40,Wunderground v.1.15,2013-10-05 15:40:00,
2013-10-05 11:45:00,60.7,60.7,30.04,ESE,109,0.0,16.0,100,0.00,,,0.40,Wunderground v.1.15,2013-10-05 15:45:00,
2013-10-05 11:55:00,60.9,60.9,30.03,ESE,109,0.0,16.0,100,0.00,,,0.40,Wunderground v.1.15,2013-10-05 15:55:00,
2013-10-05 12:00:00,60.9,60.9,30.04,ESE,109,0.0,16.0,100,0.00,,,0.40,Wunderground v.1.15,2013-10-05 16:00:00,
2013-10-05 12:05:00,61.1,61.1,30.04,ESE,109,0.0,16.0,100,0.00,,,0.40,Wunderground v.1.15,2013-10-05 16:05:00,
2013-10-05 12:10:00,61.3,61.3,30.03,ESE,109,0.0,16.0,100,0.00,,,0.40,Wunderground v.1.15,2013-10-05 16:10:00,
2013-10-05 12:15:00,61.4,61.4,30.03,ESE,109,0.0,16.0,100,0.00,,,0.40,Wunderground v.1.15,2013-10-05 16:15:00,
2013-10-05 12:20:00,61.3,61.3,30.03,ESE,108,0.0,16.0,100,0.00,,,0.40,Wunderground v.1.15,2013-10-05 16:20:00,
2013-10-05 12:30:00,61.3,61.3,30.03,ESE,108,0.0,16.0,100,0.00,,,0.40,Wunderground v.1.15,2013-10-05 16:30:00,
2013-10-05 12:40:00,61.6,61.6,30.03,ESE,109,0.0,16.0,100,0.00,,,0.40,Wunderground v.1.15,2013-10-05 16:40:00,
2013-10-05 12:45:00,61.6,61.6,30.03,ESE,108,0.0,16.0,100,0.00,,,0.40,Wunderground v.1.15,2013-10-05 16:45:00,
2013-10-05 12:50:00,61.5,61.5,30.03,ESE,108,0.0,16.0,100,0.00,,,0.40,Wunderground v.1.15,2013-10-05 16:50:00,
2013-10-05 12:55:00,61.4,61.4,30.03,ESE,108,0.0,16.0,100,0.00,,,0.40,Wunderground v.1.15,2013-10-05 16:55:00,
2013-10-05 13:00:00,61.4,61.4,30.03,ESE,109,0.0,16.0,100,0.00,,,0.40,Wunderground v.1.15,2013-10-05 17:00:00,
2013-10-05 13:05:00,61.4,61.4,30.03,ESE,108,0.0,16.0,100,0.00,,,0.40,Wunderground v.1.15,2013-10-05 17:05:00,
2013-10-05 13:15:00,61.3,61.3,30.02,ESE,108,0.0,16.0,100,0.00,,,0.40,Wunderground v.1.15,2013-10-05 17:15:00,
2013-10-05 13:20:00,61.4,61.4,30.02,ESE,108,1.0,1.0,100,0.00,,,0.40,Wunderground v.1.15,2013-10-05 17:20:00,
2013-10-05 13:25:00,61.6,61.6,30.02,ESE,108,0.0,2.0,100,0.00,,,0.40,Wunderground v.1.15,2013-10-05 17:25:00,
2013-10-05 13:30:00,61.7,61.7,30.02,ESE,108,0.0,16.0,100,0.00,,,0.40,Wunderground v.1.15,2013-10-05 17:30:00,
2013-10-05 13:35:00,61.9,61.9,30.01,ESE,108,0.0,16.0,100,0.00,,,0.40,Wunderground v.1.15,2013-10-05 17:35:00,
2013-10-05 13:40:00,62.1,62.1,30.01,ESE,108,0.0,16.0,100,0.00,,,0.40,Wunderground v.1.15,2013-10-05 17:40:00,
2013-10-05 13:45:00,62.3,62.3,30.01,ESE,109,0.0,16.0,100,0.00,,,0.40,Wunderground v.1.15,2013-10-05 17:45:00,
2013-10-05 13:55:00,62.5,62.5,30.01,ESE,106,1.0,16.0,100,0.00,,,0.40,Wunderground v.1.15,2013-10-05 17:55:00,
2013-10-05 14:00:00,62.7,62.7,30.01,ESE,106,0.0,16.0,100,0.00,,,0.40,Wunderground v.1.15,2013-10-05 18:00:00,
2013-10-05 14:05:00,62.7,62.7,30.02,ESE,106,0.0,16.0,100,0.00,,,0.40,Wunderground v.1.15,2013-10-05 18:05:00,
2013-10-05 14:10:00,62.8,62.8,30.02,ESE,105,0.0,16.0,100,0.00,,,0.40,Wunderground v.1.15,2013-10-05 18:10:00,
2013-10-05 14:15:00,62.9,62.9,30.02,ESE,106,0.0,16.0,100,0.00,,,0.40,Wunderground v.1.15,2013-10-05 18:15:00,
2013-10-05 14:20:00,62.7,62.7,30.02,ESE,106,0.0,16.0,100,0.00,,,0.40,Wunderground v.1.15,2013-10-05 18:20:00,
2013-10-05 14:30:00,63.0,63.0,30.02,ESE,103,0.0,16.0,100,0.00,,,0.40,Wunderground v.1.15,2013-10-05 18:30:00,
2013-10-05 14:35:00,63.1,63.1,30.02,ESE,103,0.0,16.0,100,0.00,,,0.40,Wunderground v.1.15,2013-10-05 18:35:00,
2013-10-05 14:40:00,63.0,62.7,30.02,ESE,102,0.0,16.0,99,0.00,,,0.40,Wunderground v.1.15,2013-10-05 18:40:00,
2013-10-05 14:45:00,62.9,62.6,30.02,East,101,0.0,16.0,99,0.00,,,0.40,Wunderground v.1.15,2013-10-05 18:45:00,
2013-10-05 14:50:00,62.9,62.6,30.02,ENE,63,0.0,16.0,99,0.00,,,0.40,Wunderground v.1.15,2013-10-05 18:50:00,
2013-10-05 14:55:00,62.7,62.4,30.02,NE,42,1.0,16.0,99,0.00,,,0.40,Wunderground v.1.15,2013-10-05 18:55:00,
2013-10-05 15:00:00,62.6,62.3,30.02,NE,46,1.0,1.0,99,0.00,,,0.40,Wunderground v.1.15,2013-10-05 19:00:00,
2013-10-05 15:10:00,62.5,62.2,30.02,NE,55,0.0,16.0,99,0.00,,,0.40,Wunderground v.1.15,2013-10-05 19:10:00,
2013-10-05 15:15:00,62.2,61.6,30.02,ENE,61,1.0,16.0,98,0.00,,,0.40,Wunderground v.1.15,2013-10-05 19:15:00,
2013-10-05 15:20:00,62.2,61.6,30.02,NNE,28,1.0,1.0,98,0.00,,,0.40,Wunderground v.1.15,2013-10-05 19:20:00,
2013-10-05 15:25:00,62.1,61.5,30.02,NE,34,0.0,16.0,98,0.00,,,0.40,Wunderground v.1.15,2013-10-05 19:25:00,
2013-10-05 15:30:00,62.1,61.8,30.02,NE,36,1.0,1.0,99,0.00,,,0.40,Wunderground v.1.15,2013-10-05 19:30:00,
2013-10-05 15:35:00,61.8,61.5,30.02,ENE,57,1.0,16.0,99,0.00,,,0.40,Wunderground v.1.15,2013-10-05 19:35:00,
2013-10-05 15:40:00,61.7,61.4,30.02,ENE,65,1.0,1.0,99,0.00,,,0.40,Wunderground v.1.15,2013-10-05 19:40:00,
2013-10-05 15:50:00,61.7,61.4,30.01,ENE,73,1.0,16.0,99,0.00,,,0.40,Wunderground v.1.15,2013-10-05 19:50:00,
2013-10-05 15:55:00,61.6,61.3,30.01,NE,44,1.0,16.0,99,0.00,,,0.40,Wunderground v.1.15,2013-10-05 19:55:00,
2013-10-05 16:00:00,61.5,60.9,30.01,NE,40,2.0,16.0,98,0.00,,,0.40,Wunderground v.1.15,2013-10-05 20:00:00,
2013-10-05 16:05:00,61.4,61.1,30.01,NE,55,1.0,16.0,99,0.00,,,0.40,Wunderground v.1.15,2013-10-05 20:05:00,
2013-10-05 16:10:00,61.4,61.1,30.01,NE,35,1.0,16.0,99,0.00,,,0.40,Wunderground v.1.15,2013-10-05 20:10:00,
2013-10-05 16:15:00,61.4,61.1,30.01,NE,35,0.0,16.0,99,0.00,,,0.40,Wunderground v.1.15,2013-10-05 20:15:00,
2013-10-05 16:25:00,61.4,61.1,30.01,NE,44,1.0,16.0,99,0.00,,,0.40,Wunderground v.1.15,2013-10-05 20:25:00,
2013-10-05 16:30:00,61.2,60.6,30.01,NE,52,1.0,1.0,98,0.00,,,0.40,Wunderground v.1.15,2013-10-05 20:30:00,
2013-10-05 16:35:00,61.1,60.5,30.02,NE,52,0.0,16.0,98,0.00,,,0.40,Wunderground v.1.15,2013-10-05 20:35:00,
2013-10-05 16:40:00,61.0,60.4,30.01,NE,46,0.0,16.0,98,0.00,,,0.40,Wunderground v.1.15,2013-10-05 20:40:00,
2013-10-05 16:45:00,60.9,60.3,30.01,East,81,1.0,16.0,98,0.00,,,0.40,Wunderground v.1.15,2013-10-05 20:45:00,
2013-10-05 16:50:00,60.7,60.1,30.01,ENE,64,1.0,1.0,98,0.00,,,0.40,Wunderground v.1.15,2013-10-05 20:50:00,
2013-10-05 16:55:00,60.6,60.3,30.01,NE,40,1.0,16.0,99,0.00,,,0.40,Wunderground v.1.15,2013-10-05 20:55:00,
2013-10-05 17:05:00,60.4,60.1,30.01,NE,41,0.0,16.0,99,0.00,,,0.40,Wunderground v.1.15,2013-10-05 21:05:00,
2013-10-05 17:10:00,60.2,59.6,30.01,ENE,61,0.0,16.0,98,0.00,,,0.40,Wunderground v.1.15,2013-10-05 21:10:00,
2013-10-05 17:15:00,60.1,59.8,30.01,ENE,57,1.0,16.0,99,0.00,,,0.40,Wunderground v.1.15,2013-10-05 21:15:00,
2013-10-05 17:20:00,59.9,59.6,30.01,East,97,0.0,16.0,99,0.00,,,0.40,Wunderground v.1.15,2013-10-05 21:20:00,
2013-10-05 17:25:00,59.9,59.6,30.01,East,96,0.0,16.0,99,0.00,,,0.40,Wunderground v.1.15,2013-10-05 21:25:00,
2013-10-05 17:30:00,59.7,59.4,30.01,ENE,61,0.0,16.0,99,0.00,,,0.40,Wunderground v.1.15,2013-10-05 21:30:00,
2013-10-05 17:35:00,59.6,59.3,30.01,NE,34,0.0,16.0,99,0.00,,,0.40,Wunderground v.1.15,2013-10-05 21:35:00,
2013-10-05 17:45:00,59.5,59.2,30.01,NE,35,0.0,16.0,99,0.00,,,0.40,Wunderground v.1.15,2013-10-05 21:45:00,
2013-10-05 17:50:00,59.3,59.0,30.01,NE,47,0.0,16.0,99,0.00,,,0.40,Wunderground v.1.15,2013-10-05 21:50:00,
2013-10-05 17:55:00,59.1,58.8,30.02,NE,54,1.0,16.0,99,0.00,,,0.40,Wunderground v.1.15,2013-10-05 21:55:00,
2013-10-05 18:00:00,59.0,58.7,30.02,NE,41,1.0,1.0,99,0.00,,,0.40,Wunderground v.1.15,2013-10-05 22:00:00,
2013-10-05 18:05:00,58.9,58.6,30.02,NE,52,0.0,2.0,99,0.00,,,0.40,Wunderground v.1.15,2013-10-05 22:05:00,
2013-10-05 18:10:00,58.8,58.5,30.02,NE,53,1.0,16.0,99,0.00,,,0.40,Wunderground v.1.15,2013-10-05 22:10:00,
2013-10-05 18:20:00,58.6,58.3,30.01,ENE,57,1.0,1.0,99,0.00,,,0.40,Wunderground v.1.15,2013-10-05 22:20:00,
2013-10-05 18:30:00,58.5,58.2,30.02,ENE,58,0.0,16.0,99,0.00,,,0.40,Wunderground v.1.15,2013-10-05 22:30:00,
2013-10-05 18:35:00,58.5,58.2,30.02,ENE,58,0.0,16.0,99,0.00,,,0.40,Wunderground v.1.15,2013-10-05 22:35:00,
2013-10-05 18:40:00,58.4,58.4,30.02,ENE,58,0.0,16.0,100,0.00,,,0.40,Wunderground v.1.15,2013-10-05 22:40:00,
2013-10-05 18:45:00,58.4,58.4,30.02,ENE,58,0.0,16.0,100,0.00,,,0.40,Wunderground v.1.15,2013-10-05 22:45:00,
2013-10-05 18:50:00,58.3,58.3,30.02,ENE,58,0.0,16.0,100,0.00,,,0.40,Wunderground v.1.15,2013-10-05 22:50:00,
2013-10-05 18:55:00,58.2,57.9,30.02,ENE,58,0.0,16.0,99,0.00,,,0.40,Wunderground v.1.15,2013-10-05 22:55:00,
2013-10-05 19:05:00,58.1,57.8,30.03,ENE,71,0.0,16.0,99,0.00,,,0.40,Wunderground v.1.15,2013-10-05 23:05:00,
2013-10-05 19:10:00,58.1,57.8,30.03,ENE,71,0.0,16.0,99,0.00,,,0.40,Wunderground v.1.15,2013-10-05 23:10:00,
2013-10-05 19:15:00,58.0,57.7,30.02,ENE,71,0.0,16.0,99,0.00,,,0.40,Wunderground v.1.15,2013-10-05 23:15:00,
2013-10-05 19:20:00,58.0,57.7,30.02,ENE,71,0.0,16.0,99,0.00,,,0.40,Wunderground v.1.15,2013-10-05 23:20:00,
2013-10-05 19:25:00,58.0,57.7,30.02,ENE,71,0.0,16.0,99,0.00,,,0.40,Wunderground v.1.15,2013-10-05 23:25:00,
2013-10-05 19:30:00,58.0,57.7,30.02,ENE,71,0.0,16.0,99,0.00,,,0.40,Wunderground v.1.15,2013-10-05 23:30:00,
2013-10-05 19:35:00,58.0,57.7,30.02,ENE,71,0.0,16.0,99,0.00,,,0.40,Wunderground v.1.15,2013-10-05 23:35:00,
2013-10-05 19:45:00,57.9,57.6,30.02,ENE,74,1.0,16.0,99,0.00,,,0.40,Wunderground v.1.15,2013-10-05 23:45:00,
2013-10-05 19:50:00,57.8,57.5,30.02,ENE,74,1.0,1.0,99,0.00,,,0.40,Wunderground v.1.15,2013-10-05 23:50:00,
2013-10-05 19:55:00,57.8,57.5,30.02,ENE,74,0.0,16.0,99,0.00,,,0.40,Wunderground v.1.15,2013-10-05 23:55:00,
2013-10-05 20:00:00,57.8,57.5,30.02,ENE,74,0.0,16.0,99,0.00,,,0.40,Wunderground v.1.15,2013-10-06 00:00:00,
2013-10-05 20:05:00,57.8,57.5,30.02,ENE,78,0.0,16.0,99,0.00,,,0.40,Wunderground v.1.15,2013-10-06 00:05:00,
2013-10-05 20:10:00,57.8,57.5,30.02,ENE,78,0.0,16.0,99,0.00,,,0.40,Wunderground v.1.15,2013-10-06 00:10:00,
2013-10-05 20:20:00,57.8,57.5,30.02,ENE,78,0.0,16.0,99,0.00,,,0.40,Wunderground v.1.15,2013-10-06 00:20:00,
2013-10-05 20:25:00,57.8,57.5,30.02,ENE,78,0.0,16.0,99,0.00,,,0.40,Wunderground v.1.15,2013-10-06 00:25:00,
2013-10-05 20:30:00,57.8,57.5,30.02,ENE,78,0.0,16.0,99,0.00,,,0.40,Wunderground v.1.15,2013-10-06 00:30:00,
2013-10-05 20:35:00,57.9,57.6,30.01,ENE,78,0.0,16.0,99,0.00,,,0.40,Wunderground v.1.15,2013-10-06 00:35:00,
2013-10-05 20:40:00,57.9,57.6,30.01,ENE,78,0.0,16.0,99,0.00,,,0.40,Wunderground v.1.15,2013-10-06 00:40:00,
2013-10-05 20:45:00,57.9,57.6,30.02,ENE,78,0.0,16.0,99,0.00,,,0.40,Wunderground v.1.15,2013-10-06 00:45:00,
2013-10-05 20:50:00,57.8,57.5,30.02,ENE,78,0.0,16.0,99,0.00,,,0.40,Wunderground v.1.15,2013-10-06 00:50:00,
2013-10-05 21:00:00,57.8,57.5,30.02,ENE,78,0.0,16.0,99,0.00,,,0.40,Wunderground v.1.15,2013-10-06 01:00:00,
2013-10-05 21:05:00,57.8,57.5,30.02,ENE,78,0.0,16.0,99,0.00,,,0.40,Wunderground v.1.15,2013-10-06 01:05:00,
2013-10-05 21:10:00,57.8,57.5,30.02,ENE,78,0.0,16.0,99,0.00,,,0.40,Wunderground v.1.15,2013-10-06 01:10:00,
2013-10-05 21:15:00,57.8,57.5,30.02,ENE,78,0.0,16.0,99,0.00,,,0.40,Wunderground v.1.15,2013-10-06 01:15:00,
2013-10-05 21:20:00,57.8,57.5,30.03,ENE,78,0.0,16.0,99,0.00,,,0.40,Wunderground v.1.15,2013-10-06 01:20:00,
2013-10-05 21:25:00,57.9,57.6,30.03,ENE,78,0.0,16.0,99,0.00,,,0.40,Wunderground v.1.15,2013-10-06 01:25:00,
2013-10-05 21:30:00,57.9,57.6,30.03,ENE,78,0.0,16.0,99,0.00,,,0.40,Wunderground v.1.15,2013-10-06 01:30:00,
2013-10-05 21:40:00,57.9,57.6,30.02,ENE,78,0.0,16.0,99,0.00,,,0.40,Wunderground v.1.15,2013-10-06 01:40:00,
2013-10-05 21:45:00,57.9,57.6,30.02,ENE,78,0.0,16.0,99,0.00,,,0.40,Wunderground v.1.15,2013-10-06 01:45:00,
2013-10-05 21:50:00,57.9,57.6,30.03,ENE,78,0.0,16.0,99,0.00,,,0.40,Wunderground v.1.15,2013-10-06 01:50:00,
2013-10-05 21:55:00,57.9,57.6,30.02,ENE,78,0.0,16.0,99,0.00,,,0.40,Wunderground v.1.15,2013-10-06 01:55:00,
2013-10-05 22:00:00,57.9,57.6,30.02,ENE,78,0.0,16.0,99,0.00,,,0.40,Wunderground v.1.15,2013-10-06 02:00:00,
2013-10-05 22:05:00,57.9,57.6,30.02,ENE,78,0.0,16.0,99,0.00,,,0.40,Wunderground v.1.15,2013-10-06 02:05:00,
2013-10-05 22:15:00,58.0,57.7,30.01,ENE,78,0.0,16.0,99,0.00,,,0.40,Wunderground v.1.15,2013-10-06 02:15:00,
2013-10-05 22:20:00,58.0,57.7,30.02,ENE,78,0.0,16.0,99,0.00,,,0.40,Wunderground v.1.15,2013-10-06 02:20:00,
2013-10-05 22:25:00,58.0,57.7,30.02,ENE,78,0.0,16.0,99,0.00,,,0.40,Wunderground v.1.15,2013-10-06 02:25:00,
2013-10-05 22:30:00,58.0,57.7,30.02,ENE,78,0.0,16.0,99,0.00,,,0.40,Wunderground v.1.15,2013-10-06 02:30:00,
2013-10-05 22:35:00,58.0,57.7,30.02,ENE,78,0.0,16.0,99,0.72,,,0.42,Wunderground v.1.15,2013-10-06 02:35:00,
2013-10-05 22:40:00,58.0,57.7,30.01,ENE,78,0.0,16.0,99,0.84,,,0.46,Wunderground v.1.15,2013-10-06 02:40:00,
2013-10-05 22:45:00,58.0,57.7,30.01,ENE,78,0.0,16.0,99,0.65,,,0.51,Wunderground v.1.15,2013-10-06 02:45:00,
2013-10-05 22:55:00,58.0,58.0,30.01,ENE,78,0.0,16.0,100,0.08,,,0.52,Wunderground v.1.15,2013-10-06 02:55:00,
2013-10-05 23:00:00,57.9,57.9,30.01,SSE,167,1.0,1.0,100,0.05,,,0.52,Wunderground v.1.15,2013-10-06 03:00:00,
2013-10-05 23:05:00,57.9,57.9,30.01,SSE,167,1.0,16.0,100,0.00,,,0.52,Wunderground v.1.15,2013-10-06 03:05:00,
2013-10-05 23:10:00,58.0,58.0,30.01,SSE,167,0.0,16.0,100,0.00,,,0.52,Wunderground v.1.15,2013-10-06 03:10:00,
2013-10-05 23:15:00,58.0,58.0,30.01,SSE,167,0.0,16.0,100,0.00,,,0.52,Wunderground v.1.15,2013-10-06 03:15:00,
2013-10-05 23:20:00,57.9,57.9,30.00,SSE,167,1.0,1.0,100,0.00,,,0.52,Wunderground v.1.15,2013-10-06 03:20:00,
2013-10-05 23:25:00,57.9,57.9,30.01,SSE,167,0.0,16.0,100,0.00,,,0.52,Wunderground v.1.15,2013-10-06 03:25:00,
2013-10-05 23:30:00,57.9,57.9,30.00,SSE,167,0.0,16.0,100,0.00,,,0.52,Wunderground v.1.15,2013-10-06 03:30:00,
2013-10-05 23:40:00,57.8,57.8,30.00,SSE,167,0.0,16.0,100,0.00,,,0.52,Wunderground v.1.15,2013-10-06 03:40:00,
2013-10-05 23:45:00,57.8,57.8,30.00,SSE,167,0.0,16.0,100,0.00,,,0.52,Wunderground v.1.15,2013-10-06 03:45:00,
2013-10-05 23:50:00,57.8,57.8,29.99,SSE,167,0.0,16.0,100,0.00,,,0.52,Wunderground v.1.15,2013-10-06 03:50:00,
2013-10-05 23:55:00,57.8,57.8,29.99,SSE,167,0.0,16.0,100,0.00,,,0.52,Wunderground v.1.15,2013-10-06 03:55:00,